CZ-6A DEB

基本信息
目录编号:
60646
目录名称:
CZ-6A DEB
国际标识:
2024-140AX
轨道中心:
EARTH
物体状态:
在轨
发射日期:
2024-08-06 UTC
轨道信息
数据来源: 国际轨道数据
星历时间: 2026-09-05T03:10:37+0800
半长轴: 7045.512km
偏心率: 0.0071888
轨道倾角: 89.002°
近地点辐角: 323.007°
升交点赤经: 260.472°
平近点角: 36.620°
近地点: 616.726km
远地点: 718.024km
周期: 98.091分钟
每日圈数: 14.680266
详细信息
发射场:
TSC
轨道高度:
LEO
数据来源:
AOE Integration Group
参考系:
TEME
时间系统:
UTC
历元类型:
SGP4
2D轨道图
3D轨道图
轨道高度分析图
轨道倾角分析图
轨道综合分析图
查看轨道综合分析图